{"data":{"norad_id":63479,"epoch":"2026-05-25T03:45:39.348288Z","epoch_age_seconds":61646,"freshness":"FRESH","line1":"1 63479U 25070V   26145.15670542  .00010281  00000+0  38250-3 0  9993","line2":"2 63479  42.9951 184.2536 0000907 294.4931  65.5826 15.27590243 64716","mean_motion":15.27590243,"eccentricity":9.07e-5,"inclination_deg":42.9951,"raan_deg":184.2536,"arg_perigee_deg":294.4931,"mean_anomaly_deg":65.5826,"bstar":0.0003825,"rev_number":6471,"period_min":94.266116623789,"perigee_km":482.39611818709,"apogee_km":483.64073178118,"semimajor_km":6861.1554249841,"source":"CELESTRAK","updated_at":"2026-05-25T13:38:20.009231Z"}}